When you browse on this site, cookies collect data to enhance your experience and personalize the content and advertising you see.
Visit our Privacy Policy to learn more. By continuing to use the site, you agree to this use of cookies and data.
  • In Hungary
  • List of Countries
  • For 7 days
  • Water Temperature
  • Weather Map
  • News
  • Weather Widgets
  • user-avatar
    Login

    Hourly Weather Bezymyannoe

    Today, 25 January, Saturday

    Time Temperature Precipitation Wind Pressure Humidity
    00:00 -9°C° 0.1 mm 9 mps 748 mmHg 87%
    01:00 -9°C° 0.1 mm 9 mps 748 mmHg 88%
    02:00 -8°C° 0.1 mm 9 mps 747 mmHg 90%
    03:00 -8°C° 0.1 mm 9 mps 747 mmHg 91%
    04:00 -8°C° 0.5 mm 9 mps 746 mmHg 90%
    05:00 -6°C° 0.5 mm 8 mps 745 mmHg 89%
    06:00 -5°C° 0.5 mm 8 mps 744 mmHg 88%
    07:00 -5°C° 0 mm 8 mps 745 mmHg 89%
    08:00 -4°C° 0 mm 7 mps 745 mmHg 89%
    09:00 -3°C° 0 mm 7 mps 745 mmHg 90%
    10:00 -3°C° 0 mm 7 mps 745 mmHg 92%
    11:00 -2°C° 0 mm 7 mps 744 mmHg 95%
    12:00 -2°C° 0 mm 7 mps 744 mmHg 97%
    13:00 -2°C° 0 mm 7 mps 744 mmHg 97%
    14:00 -2°C° 0 mm 7 mps 744 mmHg 98%
    15:00 -2°C° 0 mm 7 mps 744 mmHg 98%
    16:00 -2°C° 0.1 mm 7 mps 744 mmHg 96%
    17:00 -2°C° 0.1 mm 7 mps 744 mmHg 93%
    18:00 -2°C° 0.1 mm 6 mps 743 mmHg 91%
    19:00 -2°C° 0 mm 6 mps 743 mmHg 92%
    20:00 -2°C° 0 mm 6 mps 743 mmHg 92%
    21:00 -2°C° 0 mm 6 mps 742 mmHg 93%
    22:00 -2°C° 0.1 mm 7 mps 742 mmHg 94%
    23:00 -2°C° 0.1 mm 8 mps 741 mmHg 95%

    Tomorrow, 26 January, Sunday

    Time Temperature Precipitation Wind Pressure Humidity
    00:00 -2°C° 0.1 mm 8 mps 741 mmHg 96%
    01:00 -3°C° 0.2 mm 9 mps 741 mmHg 92%
    02:00 -4°C° 0.2 mm 9 mps 741 mmHg 87%
    03:00 -4°C° 0.2 mm 9 mps 741 mmHg 82%
    04:00 -5°C° 0 mm 8 mps 741 mmHg 82%
    05:00 -6°C° 0 mm 8 mps 742 mmHg 82%
    06:00 -7°C° 0 mm 8 mps 742 mmHg 82%
    07:00 -7°C° 0 mm 8 mps 743 mmHg 82%
    08:00 -8°C° 0 mm 9 mps 744 mmHg 81%
    09:00 -8°C° 0 mm 9 mps 744 mmHg 81%
    10:00 -6°C° 0 mm 9 mps 745 mmHg 81%
    11:00 -7°C° 0 mm 10 mps 746 mmHg 82%
    12:00 -7°C° 0 mm 10 mps 746 mmHg 82%
    13:00 -6°C° 0 mm 9 mps 747 mmHg 82%
    14:00 -6°C° 0 mm 9 mps 748 mmHg 81%
    15:00 -6°C° 0 mm 8 mps 749 mmHg 81%
    16:00 -6°C° 0 mm 7 mps 750 mmHg 82%
    17:00 -7°C° 0 mm 7 mps 751 mmHg 82%
    18:00 -6°C° 0 mm 6 mps 752 mmHg 83%
    19:00 -8°C° 0 mm 6 mps 753 mmHg 84%
    20:00 -8°C° 0 mm 6 mps 753 mmHg 85%
    21:00 -8°C° 0 mm 5 mps 754 mmHg 86%
    22:00 -8°C° 0 mm 5 mps 754 mmHg 87%
    23:00 -8°C° 0 mm 5 mps 754 mmHg 87%

    Day after tomorrow, 27 January, Monday

    Time Temperature Precipitation Wind Pressure Humidity
    00:00 -8°C° 0 mm 5 mps 754 mmHg 87%
    01:00 -8°C° 0 mm 5 mps 754 mmHg 87%
    02:00 -9°C° 0 mm 6 mps 754 mmHg 86%
    03:00 -8°C° 0 mm 6 mps 753 mmHg 86%
    04:00 -8°C° 0 mm 6 mps 753 mmHg 84%
    05:00 -7°C° 0 mm 7 mps 752 mmHg 82%
    06:00 -7°C° 0 mm 7 mps 752 mmHg 80%
    07:00 -6°C° 0 mm 7 mps 752 mmHg 82%
    08:00 -6°C° 0 mm 7 mps 751 mmHg 84%
    09:00 -6°C° 0 mm 8 mps 751 mmHg 86%
    10:00 -5°C° 0 mm 8 mps 751 mmHg 86%
    11:00 -4°C° 0 mm 8 mps 751 mmHg 86%
    12:00 -2°C° 0 mm 8 mps 751 mmHg 86%
    13:00 -2°C° 0 mm 8 mps 751 mmHg 87%
    14:00 -2°C° 0 mm 8 mps 751 mmHg 88%
    15:00 -1°C° 0 mm 7 mps 751 mmHg 88%
    16:00 -1°C° 0 mm 7 mps 752 mmHg 90%
    17:00 -2°C° 0 mm 6 mps 753 mmHg 91%
    18:00 -2°C° 0 mm 6 mps 753 mmHg 92%
    19:00 -1°C° 0 mm 5 mps 754 mmHg 94%
    20:00 -1°C° 0 mm 4 mps 754 mmHg 96%
    21:00 -1°C° 0 mm 4 mps 754 mmHg 97%
    22:00 -1°C° 0 mm 4 mps 755 mmHg 97%
    23:00 0°C° 0 mm 3 mps 755 mmHg 97%

    28 January, Tuesday

    Time Temperature Precipitation Wind Pressure Humidity
    00:00 0°C° 0 mm 3 mps 755 mmHg 98%
    01:00 0°C° 0.1 mm 3 mps 756 mmHg 97%
    02:00 -1°C° 0.1 mm 2 mps 756 mmHg 97%
    03:00 -1°C° 0.1 mm 2 mps 756 mmHg 97%
    04:00 -2°C° 0.1 mm 2 mps 756 mmHg 97%
    05:00 -2°C° 0.1 mm 3 mps 757 mmHg 97%
    06:00 -4°C° 0.1 mm 3 mps 757 mmHg 97%
    07:00 -4°C° 0.2 mm 3 mps 757 mmHg 97%
    08:00 -4°C° 0.2 mm 3 mps 757 mmHg 97%
    09:00 -4°C° 0.2 mm 3 mps 757 mmHg 97%
    10:00 -4°C° 0.2 mm 3 mps 758 mmHg 97%
    11:00 -4°C° 0.2 mm 3 mps 758 mmHg 97%
    12:00 -4°C° 0.2 mm 3 mps 758 mmHg 97%
    13:00 -2°C° 0.1 mm 3 mps 758 mmHg 97%
    14:00 -2°C° 0.1 mm 3 mps 758 mmHg 97%
    15:00 -2°C° 0.1 mm 3 mps 757 mmHg 97%
    16:00 -2°C° 0.1 mm 3 mps 758 mmHg 97%
    17:00 -2°C° 0.1 mm 3 mps 758 mmHg 97%
    18:00 -2°C° 0.1 mm 2 mps 758 mmHg 97%
    19:00 -2°C° 0 mm 3 mps 758 mmHg 97%
    20:00 -2°C° 0 mm 3 mps 758 mmHg 97%
    21:00 -2°C° 0 mm 3 mps 758 mmHg 97%
    22:00 -2°C° 0.1 mm 3 mps 758 mmHg 96%
    23:00 -2°C° 0.1 mm 3 mps 758 mmHg 96%

    29 January, Wednesday

    Time Temperature Precipitation Wind Pressure Humidity
    00:00 -3°C° 0.1 mm 4 mps 758 mmHg 95%
    01:00 -2°C° 0.1 mm 3 mps 758 mmHg 96%
    02:00 -2°C° 0.1 mm 3 mps 758 mmHg 96%
    03:00 -2°C° 0.1 mm 3 mps 758 mmHg 97%
    04:00 -2°C° 0.2 mm 3 mps 758 mmHg 97%
    05:00 -2°C° 0.2 mm 3 mps 758 mmHg 97%
    06:00 -3°C° 0.2 mm 4 mps 757 mmHg 97%
    07:00 -3°C° 0.3 mm 4 mps 757 mmHg 97%
    08:00 -3°C° 0.3 mm 4 mps 757 mmHg 97%
    09:00 -3°C° 0.3 mm 4 mps 758 mmHg 96%
    10:00 -3°C° 0.2 mm 4 mps 757 mmHg 96%
    11:00 -3°C° 0.2 mm 4 mps 757 mmHg 97%
    12:00 -2°C° 0.2 mm 4 mps 757 mmHg 97%
    13:00 -3°C° 0.2 mm 4 mps 757 mmHg 97%
    14:00 -3°C° 0.2 mm 4 mps 756 mmHg 97%
    15:00 -3°C° 0.2 mm 4 mps 756 mmHg 97%
    16:00 -3°C° 0.3 mm 4 mps 756 mmHg 97%
    17:00 -3°C° 0.3 mm 4 mps 756 mmHg 97%
    18:00 -3°C° 0.3 mm 4 mps 756 mmHg 96%
    19:00 -3°C° 0.1 mm 4 mps 756 mmHg 96%
    20:00 -3°C° 0.1 mm 4 mps 755 mmHg 96%
    21:00 -3°C° 0.1 mm 4 mps 755 mmHg 95%
    22:00 -3°C° 0.3 mm 4 mps 755 mmHg 96%
    23:00 -2°C° 0.3 mm 4 mps 755 mmHg 97%

    30 January, Thursday

    Time Temperature Precipitation Wind Pressure Humidity
    00:00 -2°C° 0.3 mm 4 mps 755 mmHg 98%
    01:00 -2°C° 0 mm 4 mps 754 mmHg 97%
    02:00 -2°C° 0 mm 5 mps 754 mmHg 96%
    03:00 -2°C° 0 mm 5 mps 753 mmHg 95%
    04:00 -4°C° 0.1 mm 5 mps 753 mmHg 94%
    05:00 -4°C° 0.1 mm 5 mps 753 mmHg 94%
    06:00 -5°C° 0.1 mm 5 mps 752 mmHg 93%
    07:00 -5°C° 0.2 mm 6 mps 752 mmHg 94%
    08:00 -5°C° 0.2 mm 6 mps 752 mmHg 94%
    09:00 -6°C° 0.2 mm 7 mps 752 mmHg 95%
    10:00 -4°C° 0.2 mm 7 mps 752 mmHg 94%
    11:00 -4°C° 0.2 mm 7 mps 751 mmHg 94%
    12:00 -4°C° 0.2 mm 8 mps 751 mmHg 93%
    13:00 -3°C° 0.4 mm 7 mps 751 mmHg 95%
    14:00 -2°C° 0.4 mm 7 mps 751 mmHg 97%
    15:00 -2°C° 0.4 mm 6 mps 751 mmHg 99%
    16:00 -2°C° 0 mm 6 mps 751 mmHg 98%
    17:00 -1°C° 0 mm 5 mps 752 mmHg 97%
    18:00 -1°C° 0 mm 4 mps 752 mmHg 95%
    19:00 -1°C° 0 mm 4 mps 752 mmHg 96%
    20:00 -1°C° 0 mm 4 mps 752 mmHg 96%
    21:00 -2°C° 0 mm 4 mps 752 mmHg 96%
    22:00 -2°C° 0 mm 4 mps 753 mmHg 95%
    23:00 -2°C° 0 mm 3 mps 753 mmHg 94%
    Show more